Weather in Krasnaya Gora

Russia / Bryansk Oblast     53°00′17″N   31°36′10″E
temp.,
°C
wind,
m/s
gust,
m/s
humid.,
%
clouds,
%
prec.,
mm/h
press.,
hPa
HPBL,
m
13 june, sun
sun1300:00+14s34835 0.0 100756
03:00+13s469394 0.0 1006101
06:00+14s379154 0.0 1004152
09:00+18s577898 0.0 1004466
12:00+20s5776100 1.1 1004930
15:00+21s4775100 1.9 10041018
18:00+19ssw688685 0.9 1004734
21:00+13sw5996100 1.0 1007321
14 june, mon
mon1400:00+12wsw469497 0.0 1008389
03:00+12ssw349396 0.0 1009231
06:00+13sse239195 0.0 1011125
09:00+16s237824 0.0 1013632
12:00+20sse22660 0.0 1014858
15:00+22se12613 0.0 10151083
18:00+23e116211 0.0 10151166
21:00+18n238124 0.0 101522
15 june, tue
tue1500:00+16n22915 0.0 101626
03:00+15nne22925 0.0 101516
06:00+15n23935 0.0 101670
09:00+20nnw33790 0.0 1015438
12:00+23n336724 0.3 10141142
15:00+24nnw235977 1.7 10131589
18:00+23n34722 1.3 1012646
21:00+18nnw36894 1.9 1013102
16 june, wed
wed1600:00+15nnw379398 0.1 1013124
03:00+14n3692100 0.1 1013118
06:00+14nnw4994100 0.0 1014234
09:00+18n568298 0.0 1015540
12:00+21n567087 0.2 10151223
15:00+21n677289 0.6 10161272
18:00+21n68690 0.1 10161083
21:00+15n49820 0.1 1018172
17 june, thu
thu1700:00+13nne410860 0.0 1019170
03:00+12nne411814 0.0 1020200
06:00+12nne411820 0.0 1021216
09:00+18ne58710 0.0 1022439
12:00+21ne68550 0.0 10231328
15:00+22ne68530 0.0 10221634
18:00+21ne59635 0.0 1022605
21:00+16ne49755 0.0 1023144